Wind_Speed
13 10 15 19 19 13 9 9 12 12 14 15 17 17 17 13 16 18 20 16 20 12 9 13 18 13 12 12 15 11 4 16 12 19 11 8 7 4 2 3 4 3 4 4 7
20 14 12 18 19 13 11 10 11 12 14 16 16 16 14 8 8 13 19 13 14 19 12 14 20 17 19 19 12 9 5 22 21 14 13 13 5 7 3 6 5 5 3 2 12
17 20 11 14 17 16 13 12 11 14 15 15 14 14 15 8 4 3 14 19 15 14 14 13 19 21 20 21 14 12 11 15 17 8 10 14 11 3 1 2 6 5 4 7 13
14 18 20 11 16 16 15 13 11 14 15 12 12 10 12 5 2 2 7 9 11 14 15 11 15 20 16 18 28 10 27 16 12 8 13 14 10 7 6 8 3 5 4 10 17
15 18 20 15 12 16 13 13 9 12 15 11 11 8 7 5 3 5 7 9 9 16 17 17 18 22 17 22 20 24 17 24 27 9 14 14 14 10 4 3 1 4 7 6 12
16 18 19 17 12 12 15 12 10 10 12 10 9 8 6 5 4 5 8 6 6 17 16 16 17 19 14 18 20 19 18 21 17 11 18 18 13 21 18 8 4 1 6 5 8
17 18 18 19 15 12 14 10 9 9 10 8 7 6 5 4 6 7 5 5 2 13 14 11 14 20 9 15 16 5 20 9 16 14 11 18 15 23 27 12 7 5 1 4 3
19 18 18 18 16 10 12 7 8 7 8 6 7 5 4 5 5 6 3 2 3 6 3 12 4 12 16 7 16 10 17 13 17 21 9 17 20 20 32 23 11 13 10 3 1
20 18 18 18 13 10 7 6 6 5 7 6 5 5 3 4 5 6 2 0 2 4 3 9 2 2 7 14 13 11 13 18 17 19 10 14 10 8 25 27 22 19 16 11 6
21 20 18 16 11 9 4 4 3 3 6 4 5 4 3 5 6 4 2 2 3 6 5 3 2 3 6 11 17 14 15 19 13 16 18 13 11 1 14 26 34 28 21 17 12
23 20 18 13 8 6 2 2 1 3 1 3 5 4 4 8 1 1 1 4 3 6 4 2 3 11 19 18 16 16 17 19 20 10 14 17 15 14 12 17 27 32 29 24 19
21 20 16 9 6 2 2 2 2 1 3 0 2 2 5 2 1 2 4 6 4 5 5 4 6 9 8 18 8 17 19 11 3 10 13 16 15 14 17 22 25 24 35 34 28
20 19 13 6 2 2 3 3 2 1 4 3 2 2 1 3 3 2 4 3 5 5 7 5 7 9 7 14 14 17 18 14 13 9 13 9 15 15 17 22 22 24 25 34 34
19 17 9 1 2 3 2 5 2 1 2 3 1 2 2 3 1 6 7 3 2 5 10 9 8 7 12 17 12 11 13 14 11 13 7 15 6 17 17 17 20 26 21 24 29
17 14 4 3 2 1 4 4 2 1 1 2 2 1 0 0 11 5 7 3 9 8 6 6 13 11 14 16 9 10 8 9 9 12 5 9 6 13 9 17 18 22 21 21 19
15 7 3 3 2 3 3 3 2 2 1 0 1 1 2 2 6 9 3 2 7 4 8 9 13 3 7 8 1 9 11 8 4 7 8 14 10 9 10 11 13 16 19 23 21
10 2 4 6 2 2 1 3 2 2 1 4 2 2 4 1 1 2 4 3 3 5 4 7 8 4 6 9 9 16 16 5 5 4 6 1 10 12 1 4 4 2 12 18 22
4 6 5 6 6 4 4 3 3 1 4 3 4 5 3 5 2 2 2 3 2 5 10 4 3 4 7 10 7 14 17 4 5 7 10 5 6 6 4 4 3 6 10 11 9
4 8 4 8 4 3 2 3 1 3 5 6 7 3 4 2 2 3 3 2 2 10 1 5 2 2 1 3 5 9 4 4 3 5 0 7 6 10 4 8 7 8 5 6 9
8 7 6 8 3 3 1 3 0 1 2 3 3 2 3 5 6 4 2 2 5 4 4 4 4 3 4 3 1 4 9 4 1 4 5 5 5 3 8 7 6 5 4 3 4
10 5 6 7 5 3 1 2 1 4 3 3 0 3 4 6 6 5 4 3 4 5 4 6 6 3 8 7 10 4 4 4 3 2 3 2 3 8 8 7 8 10 11 10 6
7 3 11 9 3 1 2 3 1 4 4 2 2 2 4 6 5 3 4 2 5 6 6 2 4 4 6 3 4 5 12 12 5 5 2 4 2 4 10 4 4 5 6 9 7
6 5 11 11 3 4 4 3 2 5 4 3 2 1 1 5 2 2 4 2 5 3 5 5 5 4 1 4 5 6 11 8 10 3 4 5 2 4 2 5 7 4 10 16 9
7 4 5 10 8 6 6 5 5 3 2 2 1 3 5 4 0 5 5 3 4 3 2 2 4 4 3 4 3 8 15 14 9 5 10 12 13 9 5 7 10 13 17 11 6
6 3 6 4 7 7 3 4 7 5 2 3 4 3 3 4 4 4 4 6 4 4 2 2 3 2 1 3 3 3 12 17 14 17 10 14 15 16 15 15 16 17 20 16 13
6 5 4 4 6 8 5 6 9 4 2 4 3 2 2 1 4 3 3 3 3 6 5 2 2 2 3 1 3 6 9 11 18 19 18 19 18 14 12 12 10 16 17 16 13
12 10 5 5 6 7 5 6 7 5 3 3 1 2 6 4 5 4 3 2 3 3 8 4 4 3 2 1 3 8 14 15 11 10 12 14 16 13 13 12 15 18 18 18 18
Wind_Direction
338 323 324 326 329 336 343 338 341 341 337 333 326 321 320 285 252 234 224 225 230 246 203 202 215 216 201 216 202 218 242 223 195 174 156 171 177 107 60 131 91 24 40 141 168
335 331 316 323 326 332 325 323 333 335 334 330 328 332 336 299 231 223 213 209 224 218 236 209 205 195 203 204 208 196 230 208 193 189 152 171 188 113 144 154 128 67 40 154 177
329 329 307 317 321 327 323 318 325 333 338 329 336 342 357 326 201 230 233 261 240 230 231 218 209 196 210 187 201 200 224 240 239 219 216 157 155 104 62 116 43 29 13 168 170
332 325 323 300 310 313 317 318 326 337 338 333 334 343 358 350 50 163 205 308 234 216 219 207 221 193 200 203 195 242 210 232 286 181 185 177 176 123 43 65 58 17 24 183 172
335 323 322 317 303 308 303 313 320 327 330 329 335 343 2 309 40 354 325 305 248 198 212 197 201 196 200 198 205 211 203 205 234 218 176 172 178 117 193 221 346 15 41 177 184
332 321 319 316 296 301 306 304 310 317 323 326 332 344 328 292 343 327 326 347 184 189 207 202 200 195 228 206 203 206 219 195 216 247 210 194 185 169 210 226 219 313 36 71 181
333 322 320 314 311 287 298 294 300 312 324 330 346 353 307 358 338 329 339 10 172 199 207 204 216 209 219 202 200 209 205 201 180 189 215 195 194 197 194 201 217 237 327 57 74
329 326 317 313 308 291 294 292 297 299 327 331 341 334 344 339 342 1 338 356 77 152 175 200 222 213 256 185 174 189 190 201 210 218 149 200 212 205 209 204 237 254 268 270 16
329 328 320 314 314 301 290 296 289 277 327 325 338 305 75 25 9 350 21 292 163 147 55 206 249 224 237 193 176 196 190 206 188 199 178 206 228 250 201 234 250 250 257 245 235
327 330 324 318 314 304 290 310 312 277 327 302 282 272 78 338 336 327 303 221 214 159 97 165 28 208 199 208 189 178 208 196 191 198 211 209 232 140 193 207 234 247 251 243 230
328 333 325 319 315 296 276 345 306 226 280 353 332 306 331 323 9 276 206 189 183 191 154 42 190 194 185 217 211 194 208 187 221 164 191 223 222 202 190 222 231 238 244 250 225
327 333 323 315 305 249 192 230 255 218 277 89 317 276 326 6 211 129 158 191 179 155 103 240 206 199 257 227 238 242 198 186 177 153 198 219 224 222 228 225 227 234 231 236 239
326 330 324 323 327 216 208 199 207 311 261 74 341 327 301 52 355 213 172 173 178 146 179 223 149 159 254 219 214 232 186 170 181 174 214 255 235 228 227 228 238 237 233 228 231
325 327 317 356 21 208 201 212 221 170 274 118 183 225 152 183 335 163 175 164 135 238 262 208 144 202 191 203 198 181 196 179 169 175 205 207 260 205 214 220 231 231 233 230 227
323 321 290 196 229 203 236 196 197 81 333 99 103 257 342 5 145 207 187 130 170 239 216 124 160 203 194 183 181 197 137 171 152 213 279 181 253 267 182 221 231 231 231 234 232
321 312 199 165 156 228 194 158 119 238 131 104 102 140 231 184 150 136 170 206 184 185 102 109 149 198 203 153 152 149 152 119 213 242 242 246 220 252 206 235 230 238 232 228 232
321 223 187 153 184 122 140 144 229 279 155 150 142 220 69 42 305 206 127 183 158 145 118 102 169 138 215 128 141 156 160 148 183 206 237 354 224 250 351 206 235 245 250 233 227
311 173 178 154 124 99 115 192 242 137 197 116 123 136 158 182 300 330 148 137 212 123 126 154 188 215 159 197 172 191 185 175 193 196 203 140 232 237 295 251 286 268 258 239 259
171 169 168 175 147 129 168 217 95 172 190 166 155 178 158 135 262 243 150 135 143 178 111 153 90 209 221 248 255 173 202 360 344 32 258 174 222 268 243 209 239 250 250 235 226
156 163 197 179 160 142 198 280 157 173 184 218 223 171 184 168 202 195 122 206 167 205 317 124 121 282 196 250 150 225 166 189 279 180 216 160 232 124 142 112 96 79 46 356 285
154 175 207 170 161 215 208 249 187 192 233 251 310 169 165 178 228 136 166 193 196 179 264 185 145 133 182 213 189 166 189 229 287 308 301 182 139 97 118 103 93 80 56 32 3
170 200 181 170 191 193 223 193 160 181 219 268 293 345 170 163 173 144 143 123 146 188 175 333 81 146 186 81 309 279 247 215 222 199 249 324 324 166 163 119 139 108 43 7 330
178 137 178 180 202 201 152 175 231 192 199 196 226 268 243 179 158 138 126 108 153 194 180 161 140 115 197 240 196 236 229 253 248 27 194 238 213 110 187 238 198 215 317 329 316
167 155 156 204 256 280 172 180 170 211 191 198 232 224 178 169 273 150 135 125 168 186 184 181 181 258 237 42 235 204 221 218 209 227 227 229 265 266 235 213 219 244 323 323 313
195 175 174 186 210 210 192 159 179 183 205 192 176 250 239 165 167 134 125 138 164 159 147 266 162 118 65 66 94 238 230 224 217 232 246 259 274 278 290 290 293 309 296 286 286
189 170 168 146 148 186 162 196 201 150 273 164 218 168 208 272 33 162 162 199 177 181 190 184 138 151 206 185 237 254 245 232 229 237 241 257 269 290 312 296 299 291 296 288 266
199 172 176 157 181 197 178 155 174 170 82 63 93 195 133 62 5 6 318 335 326 221 200 192 147 177 201 178 274 265 236 222 222 234 241 250 260 277 294 312 305 302 294 283 275
Height
1517 1516 1514 1511 1508 1504 1502 1499 1496 1495 1492 1489 1486 1481 1477 1475 1475 1477 1479 1483 1486 1486 1486 1491 1495 1494 1497 1498 1500 1504 1502 1494 1488 1496 1497 1505 1504 1505 1508 1511 1515 1515 1515 1517 1517
1516 1514 1512 1510 1506 1503 1500 1497 1495 1493 1491 1488 1484 1479 1475 1473 1474 1474 1476 1476 1482 1484 1486 1488 1491 1493 1494 1497 1500 1500 1500 1485 1483 1485 1494 1502 1504 1505 1509 1512 1515 1516 1516 1516 1517
1514 1511 1509 1508 1505 1501 1498 1496 1494 1492 1489 1486 1482 1479 1476 1472 1472 1474 1472 1476 1478 1481 1483 1485 1489 1491 1491 1492 1496 1496 1499 1492 1486 1488 1493 1501 1506 1506 1508 1512 1518 1519 1518 1517 1519
1513 1510 1507 1505 1503 1500 1497 1495 1493 1491 1488 1485 1481 1478 1476 1475 1475 1473 1473 1471 1475 1478 1482 1483 1485 1489 1487 1482 1490 1495 1499 1501 1497 1496 1496 1500 1504 1505 1511 1517 1521 1520 1518 1518 1519
1510 1507 1504 1502 1501 1498 1496 1494 1492 1490 1487 1485 1482 1479 1478 1479 1476 1474 1474 1474 1474 1477 1480 1483 1486 1486 1481 1480 1487 1495 1492 1498 1501 1492 1495 1501 1503 1508 1516 1521 1521 1521 1519 1519 1519
1508 1505 1502 1499 1497 1496 1494 1492 1490 1489 1486 1484 1482 1481 1480 1477 1477 1475 1475 1474 1474 1476 1480 1482 1483 1484 1481 1479 1482 1483 1485 1493 1498 1494 1497 1500 1504 1511 1516 1520 1521 1521 1520 1520 1521
1506 1502 1499 1496 1494 1493 1491 1490 1488 1487 1485 1484 1483 1481 1482 1480 1478 1476 1476 1476 1475 1477 1479 1482 1483 1485 1481 1478 1478 1480 1486 1488 1495 1499 1499 1502 1506 1505 1509 1518 1519 1520 1520 1521 1522
1502 1499 1496 1492 1490 1489 1488 1488 1487 1485 1484 1483 1483 1483 1481 1480 1478 1478 1478 1478 1478 1479 1479 1481 1482 1485 1483 1479 1482 1488 1487 1498 1489 1492 1498 1502 1499 1501 1507 1512 1517 1519 1519 1520 1521
1500 1496 1493 1489 1487 1487 1486 1485 1485 1485 1483 1482 1483 1483 1480 1481 1481 1480 1480 1480 1481 1481 1480 1482 1484 1484 1487 1480 1486 1488 1487 1489 1489 1493 1498 1499 1494 1495 1506 1513 1515 1517 1518 1518 1521
1497 1494 1490 1487 1485 1485 1484 1484 1484 1484 1483 1483 1484 1485 1482 1483 1482 1481 1482 1481 1482 1483 1484 1487 1486 1486 1484 1480 1477 1480 1478 1482 1479 1491 1492 1496 1499 1503 1507 1510 1513 1514 1516 1516 1519
1495 1491 1487 1485 1484 1484 1484 1485 1488 1487 1485 1485 1485 1483 1481 1480 1481 1482 1482 1482 1483 1484 1483 1489 1489 1483 1475 1476 1466 1468 1473 1477 1480 1483 1495 1498 1501 1503 1505 1508 1509 1512 1512 1512 1513
1493 1489 1485 1483 1482 1482 1483 1485 1484 1485 1483 1483 1483 1483 1481 1479 1481 1482 1482 1482 1483 1483 1489 1491 1485 1488 1486 1479 1478 1469 1472 1479 1482 1488 1496 1495 1493 1495 1497 1500 1502 1503 1504 1507 1509
1490 1487 1483 1482 1481 1482 1483 1485 1483 1483 1483 1483 1483 1482 1482 1481 1481 1482 1483 1482 1483 1487 1490 1484 1482 1489 1491 1488 1487 1469 1467 1482 1487 1491 1496 1489 1491 1488 1491 1496 1495 1494 1494 1498 1502
1488 1484 1482 1481 1483 1482 1484 1482 1483 1483 1483 1484 1482 1481 1483 1482 1482 1482 1482 1485 1485 1481 1490 1487 1486 1491 1488 1479 1472 1479 1470 1474 1482 1494 1497 1489 1484 1469 1481 1486 1487 1488 1491 1492 1496
1485 1482 1480 1479 1482 1483 1483 1482 1482 1484 1467 1481 1481 1480 1481 1481 1482 1483 1483 1483 1483 1484 1475 1477 1483 1490 1482 1479 1473 1476 1475 1479 1486 1490 1481 1488 1493 1474 1474 1480 1483 1485 1486 1490 1493
1482 1479 1479 1480 1480 1481 1481 1482 1483 1485 1472 1483 1480 1479 1477 1476 1478 1481 1483 1483 1481 1476 1471 1476 1482 1485 1484 1477 1476 1479 1480 1487 1490 1489 1499 1490 1488 1475 1470 1475 1475 1477 1479 1485 1489
1479 1478 1478 1479 1481 1480 1481 1484 1483 1468 1479 1477 1477 1479 1473 1476 1475 1475 1480 1481 1479 1480 1481 1485 1485 1485 1487 1482 1482 1481 1486 1502 1507 1508 1496 1483 1484 1474 1468 1473 1474 1474 1478 1479 1482
1477 1478 1478 1478 1479 1480 1481 1482 1473 1469 1474 1471 1472 1475 1475 1477 1476 1474 1477 1477 1476 1470 1474 1485 1490 1486 1484 1482 1483 1484 1480 1485 1494 1492 1485 1490 1492 1474 1467 1468 1474 1478 1480 1480 1480
1475 1477 1478 1478 1479 1479 1482 1475 1463 1470 1473 1468 1472 1472 1470 1475 1476 1475 1476 1477 1475 1470 1471 1475 1490 1490 1488 1487 1483 1484 1490 1487 1485 1480 1480 1479 1476 1469 1469 1471 1472 1474 1476 1476 1478
1474 1477 1478 1478 1478 1479 1480 1470 1466 1468 1467 1465 1468 1464 1469 1472 1472 1469 1477 1474 1472 1475 1474 1471 1489 1491 1489 1489 1486 1483 1484 1491 1492 1497 1488 1478 1472 1464 1468 1470 1472 1473 1474 1475 1476
1474 1477 1476 1477 1478 1479 1476 1472 1467 1468 1468 1466 1461 1462 1464 1466 1465 1467 1475 1477 1472 1475 1476 1470 1473 1494 1490 1485 1481 1487 1486 1486 1483 1485 1481 1472 1465 1456 1468 1470 1472 1473 1474 1475 1475
1472 1473 1476 1477 1479 1478 1471 1467 1469 1467 1468 1468 1467 1464 1463 1463 1463 1464 1470 1469 1474 1474 1475 1474 1475 1488 1485 1486 1487 1486 1481 1479 1488 1489 1485 1488 1473 1464 1464 1471 1473 1475 1476 1477 1477
1468 1472 1474 1475 1472 1468 1465 1466 1467 1467 1466 1467 1465 1467 1463 1462 1465 1465 1467 1475 1476 1475 1472 1473 1480 1491 1491 1488 1487 1487 1480 1478 1477 1488 1492 1484 1471 1465 1469 1472 1474 1473 1474 1473 1474
1465 1468 1473 1473 1469 1463 1461 1462 1465 1468 1467 1467 1465 1464 1462 1462 1463 1465 1468 1474 1476 1476 1477 1475 1472 1474 1473 1473 1471 1482 1478 1478 1486 1490 1482 1479 1472 1467 1467 1471 1472 1472 1472 1474 1474
1459 1457 1461 1464 1461 1461 1462 1462 1462 1465 1467 1467 1465 1463 1461 1463 1462 1464 1468 1473 1475 1476 1476 1475 1486 1488 1478 1478 1479 1482 1478 1478 1485 1483 1484 1473 1471 1466 1465 1465 1466 1469 1472 1473 1473
1455 1456 1459 1459 1459 1459 1462 1461 1461 1467 1467 1465 1463 1465 1464 1461 1466 1464 1466 1467 1467 1475 1474 1476 1483 1483 1479 1479 1481 1483 1477 1474 1475 1475 1476 1473 1471 1467 1466 1467 1470 1470 1470 1468 1468
1448 1450 1452 1459 1458 1457 1455 1460 1464 1467 1471 1470 1468 1465 1466 1474 1474 1474 1473 1470 1470 1470 1473 1475 1479 1483 1474 1480 1479 1476 1466 1468 1469 1468 1469 1470 1465 1464 1464 1467 1468 1467 1468 1466 1465